Temperature
18 19 19 19 19 19 21 23 25 26 26 26 26 26 25 24 23 20 19 18 17 17 17 16 16 15 15 15 14 14 14 13 13 13 13 13 12 12 12 12 12 12 12 12 12 12 12 12 13
18 18 19 20 19 20 21 23 25 26 25 25 25 25 25 23 21 20 18 18 17 17 17 16 15 15 15 14 14 14 14 13 13 12 12 12 12 12 12 11 11 11 11 11 11 12 12 12 13
18 18 20 20 20 21 23 25 25 25 25 25 25 25 25 23 21 20 19 18 17 16 16 16 15 15 14 14 14 14 13 13 12 12 12 12 12 11 11 11 11 11 11 11 11 11 12 12 12
18 19 20 20 21 22 24 25 25 24 25 25 25 24 23 22 21 20 19 18 16 16 16 16 15 15 14 14 14 13 13 13 12 12 12 11 11 11 11 11 11 11 11 11 11 11 12 12 12
18 19 19 19 21 23 25 26 26 24 24 24 25 24 21 21 21 20 19 17 16 15 15 15 15 14 14 14 13 13 13 12 12 12 11 11 11 11 11 11 11 11 11 11 11 11 11 12 12
19 20 19 19 21 23 25 26 26 25 24 25 25 24 20 20 20 19 18 17 16 16 15 15 14 14 14 13 13 13 13 12 12 12 11 11 11 11 11 11 11 11 11 11 11 11 11 12 12
19 19 19 20 21 23 25 26 25 24 24 25 25 23 20 19 19 19 18 17 16 16 15 15 14 14 13 13 13 13 12 12 12 12 11 11 11 11 11 11 11 11 11 10 11 11 11 12 12
19 19 19 20 21 23 25 25 25 25 25 25 25 24 20 19 19 18 17 17 16 15 15 15 14 14 13 13 13 13 12 12 12 12 12 11 11 11 11 11 11 11 11 11 11 11 11 11 11
18 18 18 20 21 23 24 24 25 24 24 24 24 23 21 20 19 18 17 16 16 15 15 15 14 14 13 13 13 12 12 12 12 12 11 11 11 11 11 11 11 11 11 11 11 11 11 11 11
18 17 18 21 22 23 24 24 24 24 23 23 22 21 21 20 19 18 17 16 16 15 15 14 14 13 13 13 13 12 12 12 12 12 11 11 11 10 11 11 11 10 10 10 10 11 10 10 10
18 18 19 21 22 23 23 24 24 23 22 23 22 20 19 19 18 18 17 17 16 16 15 14 14 14 13 13 13 13 12 12 12 11 11 11 10 10 10 10 10 10 10 10 10 10 10 10 10
18 19 20 21 21 22 22 23 23 23 23 24 23 22 20 19 18 18 18 17 16 16 15 15 14 14 13 13 13 13 12 12 12 11 11 11 10 10 10 10 10 10 10 10 10 10 10 10 10
18 19 20 21 21 21 21 22 22 22 23 23 23 21 20 20 19 19 18 18 17 16 15 15 14 14 13 13 13 13 12 12 12 11 11 11 11 10 10 10 10 10 10 10 10 10 10 10 10
18 19 20 20 20 21 20 21 21 22 22 22 22 21 20 20 20 19 18 18 17 17 16 15 15 14 13 13 13 13 13 12 12 12 11 11 11 11 10 10 10 10 10 10 10 10 10 10 10
18 18 18 19 20 20 20 19 20 21 22 22 22 21 20 20 20 19 19 19 18 17 16 16 15 14 14 13 13 13 13 12 12 12 12 11 11 11 10 10 10 10 10 10 10 10 10 10 10
17 16 16 18 19 20 19 17 20 21 21 22 22 22 21 20 20 20 19 19 18 18 17 16 15 14 14 14 13 13 13 13 12 12 12 11 11 11 11 10 10 10 10 10 10 10 10 10 10
15 15 16 17 19 19 18 18 20 21 21 21 22 22 22 21 20 20 20 19 19 18 17 16 16 15 14 14 13 13 13 13 12 12 12 12 11 11 11 11 11 10 10 10 10 10 10 10 10
14 15 16 17 18 19 18 18 19 21 21 21 22 22 22 21 21 20 20 19 19 18 17 17 16 15 14 14 13 13 13 13 13 12 12 12 12 11 11 11 11 10 10 10 10 10 10 10 10
16 16 16 18 19 19 18 18 19 20 20 20 22 22 22 22 21 21 20 20 19 18 17 17 16 15 14 14 13 13 13 13 13 13 12 12 12 12 11 11 11 11 10 10 10 10 10 10 10
15 15 15 17 18 18 18 18 19 20 20 20 21 22 22 22 22 21 21 20 19 18 18 17 16 16 15 15 15 15 14 14 13 13 13 12 12 12 11 11 11 11 11 10 10 10 10 10 9
14 14 15 16 17 17 17 17 18 19 20 21 21 21 22 22 21 21 21 20 19 19 18 17 17 16 16 15 14 13 13 13 12 13 13 13 12 12 12 11 11 11 11 10 10 10 10 10 9
13 15 15 15 15 14 15 14 17 18 18 19 20 21 21 21 21 21 21 20 20 19 18 17 17 16 16 15 14 14 14 14 14 14 14 13 13 12 12 11 11 11 11 10 10 10 10 10 9
14 15 15 15 14 13 15 14 16 18 18 19 19 20 21 21 21 21 20 20 20 19 18 18 17 16 16 15 15 15 14 15 14 13 13 13 13 12 12 11 11 11 11 10 10 10 10 9 9
13 13 13 13 12 12 13 14 15 17 18 19 19 20 21 21 20 20 20 20 20 19 18 18 17 16 15 15 15 15 15 14 13 13 13 13 12 12 12 11 11 11 11 10 10 10 10 9 9
12 11 10 10 10 11 14 14 15 18 19 20 20 20 21 21 20 20 20 20 19 19 18 18 17 16 15 15 15 15 14 14 14 14 13 13 12 12 12 12 11 11 11 10 10 10 10 9 9
11 11 11 11 11 13 14 14 16 18 19 20 21 21 21 20 20 20 20 19 19 19 18 18 17 16 16 15 15 14 14 14 13 13 13 13 13 13 12 12 11 11 11 10 10 10 9 9 9
11 11 12 12 12 13 14 16 17 18 18 18 19 19 19 19 19 19 19 19 19 18 18 18 17 17 16 16 15 14 14 14 13 13 13 12 12 12 12 12 11 11 10 10 10 9 9 9 9
12 11 11 10 11 11 14 15 16 16 17 17 17 17 19 19 19 18 18 18 18 18 18 17 17 17 16 16 15 14 14 14 13 13 13 12 12 12 12 11 11 11 10 10 10 9 9 9 9
11 11 10 10 11 12 13 15 18 17 18 17 17 18 18 18 18 18 18 17 18 17 17 17 16 16 16 15 15 14 14 13 13 13 13 12 12 12 12 11 11 11 10 10 10 9 9 9 8
10 11 10 10 10 12 13 15 18 17 17 17 17 18 18 18 18 17 17 17 17 17 16 16 16 16 16 15 15 14 14 13 13 13 12 12 12 12 12 11 11 10 10 10 9 9 9 9 8
Wind_Speed
9 11 8 3 4 6 9 8 6 2 2 5 5 3 3 4 4 7 7 12 16 18 21 21 20 19 17 16 15 14 14 14 13 13 13 13 13 14 14 14 14 15 15 15 15 15 16 16 15
10 10 6 4 6 8 9 10 7 3 6 6 4 1 1 5 9 10 8 13 17 19 20 20 20 19 18 17 15 15 14 14 13 13 13 13 13 13 13 13 14 14 14 14 15 15 15 15 14
9 11 5 5 6 9 8 6 5 6 8 6 4 1 0 6 10 9 10 15 15 17 19 21 21 19 18 17 16 15 14 14 13 13 13 13 13 13 13 13 13 13 13 13 14 14 14 14 13
6 5 5 8 12 11 10 2 6 7 6 4 6 4 4 5 6 11 14 15 15 15 19 22 21 20 19 18 16 15 14 14 13 13 13 13 12 12 12 12 12 12 12 12 12 13 12 12 12
6 5 8 10 14 13 8 4 6 6 7 6 6 5 7 6 13 15 14 14 15 15 19 21 21 20 19 18 17 16 15 14 13 13 12 12 12 12 12 12 11 11 11 11 11 11 11 11 11
5 5 9 12 14 13 9 6 5 7 7 8 7 4 7 9 12 12 12 12 13 15 18 20 20 20 19 18 17 16 15 14 13 13 12 12 12 11 11 11 10 10 10 10 10 10 10 10 9
8 7 12 13 12 11 10 7 8 8 8 8 7 5 8 10 11 12 11 11 13 15 17 16 18 18 19 18 17 16 15 15 14 13 12 12 12 11 11 10 10 9 9 9 9 8 8 8 7
8 6 13 14 13 11 7 6 5 6 6 6 6 5 9 12 12 12 11 11 12 13 15 14 16 17 17 16 17 17 16 15 14 13 13 13 12 11 11 10 9 9 8 7 7 6 6 5 4
8 9 14 13 11 9 6 5 5 2 2 2 3 5 12 17 14 12 10 9 11 12 13 14 14 15 17 17 17 17 16 16 15 14 15 14 12 12 10 10 9 8 7 6 5 4 3 2 2
8 12 16 12 11 8 6 6 6 5 6 5 6 9 14 14 14 13 12 12 13 12 12 13 13 13 15 15 16 15 14 15 14 14 15 12 11 12 12 12 9 8 7 5 4 3 3 3 3
11 14 13 14 12 9 7 6 6 8 8 8 11 14 14 13 13 13 13 12 12 12 12 12 12 13 12 10 13 12 13 14 14 16 16 12 11 12 12 11 9 8 8 6 6 5 5 2 3
16 16 16 14 10 8 8 7 7 9 8 6 9 16 16 15 14 14 14 13 13 13 12 11 12 11 12 11 10 10 9 10 10 13 15 11 7 7 9 8 9 9 7 6 5 4 4 2 3
20 18 16 13 10 10 9 10 9 10 8 6 5 14 16 15 14 13 12 12 12 13 13 12 12 12 10 9 8 9 8 9 11 12 13 12 6 5 7 6 7 6 6 5 3 2 2 2 2
13 15 17 15 13 11 11 11 11 11 8 8 7 11 13 14 13 12 12 12 13 14 14 13 12 12 11 9 7 7 8 10 11 11 12 13 10 7 5 5 5 5 5 5 4 3 2 2 2
15 15 15 15 14 12 9 15 16 12 10 11 10 11 12 13 13 13 13 13 13 14 15 14 13 13 12 11 9 8 8 10 8 11 13 13 11 9 6 4 4 5 6 5 3 2 2 2 1
11 13 16 15 14 12 12 16 13 13 13 13 11 11 12 12 13 12 12 12 12 14 15 15 13 13 13 11 9 7 8 9 8 11 13 14 14 12 8 4 4 7 6 4 2 1 1 1 1
11 15 17 15 16 14 15 14 10 12 14 14 13 12 12 13 13 13 13 12 13 14 15 16 14 14 14 12 9 8 7 7 8 11 11 13 14 14 9 5 5 8 5 3 3 2 2 1 1
13 15 16 16 13 16 18 16 11 10 12 14 14 12 12 13 14 13 13 13 13 13 15 16 15 14 13 11 9 7 6 6 7 7 10 13 13 14 11 6 7 7 4 4 3 3 2 2 2
15 16 17 15 13 15 17 18 15 13 12 12 12 12 12 12 12 13 13 13 13 12 14 16 16 15 13 11 11 10 9 8 7 6 10 12 13 14 10 6 6 6 5 6 5 4 4 3 2
21 19 17 13 11 11 13 17 15 15 15 13 12 12 12 11 11 12 13 13 13 14 14 15 17 16 14 12 11 9 8 7 7 6 8 11 12 13 10 8 7 6 5 6 6 5 4 3 3
22 21 18 13 7 8 9 13 16 14 14 15 13 12 11 12 12 12 12 13 13 13 15 14 16 15 15 13 9 8 7 6 6 8 8 9 11 12 11 9 7 7 7 6 6 6 6 4 3
21 19 18 15 9 7 10 9 13 15 16 17 16 14 13 12 11 11 12 13 13 13 13 13 15 15 15 15 13 14 12 10 10 9 8 8 10 10 11 10 9 8 6 6 6 6 5 5 4
14 10 11 13 12 10 10 9 8 12 17 20 18 17 15 13 12 11 12 13 13 13 13 13 13 14 15 15 15 15 11 10 8 8 10 10 9 10 10 10 9 8 7 7 7 6 6 5 5
9 7 6 6 7 13 16 12 8 12 15 15 17 16 15 15 13 12 11 11 11 12 12 13 13 14 15 16 15 15 14 12 11 11 11 10 8 8 10 9 9 8 7 7 7 7 7 6 5
11 8 6 7 9 10 11 12 10 10 11 13 14 15 14 14 13 13 12 12 12 13 14 14 14 14 15 16 16 16 15 14 14 12 12 11 9 8 11 9 9 8 7 8 7 7 7 7 6
16 15 10 7 8 7 10 13 9 11 9 7 8 9 11 12 12 12 13 12 13 14 15 15 15 14 14 15 15 14 14 11 10 11 10 11 9 9 10 10 9 8 8 8 7 6 6 6 6
13 15 11 6 6 6 8 10 10 8 10 9 7 8 9 10 11 11 11 11 11 13 14 15 15 13 14 14 14 13 13 12 10 10 9 9 8 8 10 10 10 9 9 8 8 6 7 6 6
10 9 8 9 7 8 8 12 9 12 13 11 11 10 10 10 10 10 9 10 11 11 10 11 13 13 12 12 12 11 12 12 11 9 10 10 10 9 10 11 11 10 9 9 8 6 6 7 6
12 14 9 7 7 6 6 6 7 10 12 13 13 12 11 10 10 9 8 9 10 10 10 10 10 11 11 12 12 11 11 11 10 9 10 10 9 10 11 11 11 10 10 9 8 8 7 7 6
10 12 14 10 8 7 6 4 1 2 5 9 10 9 9 9 9 8 8 9 9 10 10 10 10 10 11 11 11 11 10 10 11 10 10 9 10 10 10 10 10 10 10 9 9 9 8 8 7
Wind_Direction
264 248 234 237 238 235 242 245 250 148 81 66 56 25 17 39 45 114 160 140 128 134 141 148 146 144 140 134 129 126 120 116 111 106 101 98 94 92 90 87 83 81 78 76 75 74 73 71 70
270 248 236 237 239 234 237 228 236 159 109 86 78 60 75 80 90 116 146 131 133 135 143 147 147 146 142 138 134 130 124 120 115 110 107 103 99 96 93 89 86 83 81 79 77 74 73 72 70
264 255 237 230 237 238 246 200 169 112 110 129 147 191 82 96 115 132 134 132 134 136 144 144 148 147 145 141 138 134 129 125 120 115 111 107 103 99 96 93 89 87 84 81 79 77 75 73 70
246 230 242 243 244 241 252 246 115 122 129 168 166 146 93 49 98 119 128 137 136 136 137 144 149 148 145 143 141 138 134 130 126 121 115 111 107 103 98 94 92 89 87 84 82 79 76 73 69
237 238 230 242 248 255 254 236 136 153 157 187 209 151 106 78 97 119 137 142 140 138 136 147 151 150 148 147 145 142 139 135 131 127 122 117 113 109 104 100 97 94 90 87 84 81 77 71 67
225 232 232 234 240 244 241 230 175 186 181 180 203 177 115 124 120 136 143 143 140 137 138 149 154 152 151 150 149 146 144 140 137 133 129 124 120 116 111 107 103 98 93 89 87 85 79 73 66
236 242 247 246 242 235 225 209 197 194 200 183 186 176 128 140 134 143 145 145 138 136 140 148 155 154 154 154 152 151 149 146 143 141 137 132 128 124 118 113 108 103 98 92 90 86 82 74 66
243 256 252 249 250 247 224 208 206 207 211 177 177 187 147 144 140 145 147 144 138 140 145 153 158 158 157 155 155 155 153 151 148 144 140 137 137 133 127 122 117 110 104 99 95 93 89 85 77
247 243 243 240 242 249 233 210 204 226 258 196 119 52 125 135 141 144 146 144 145 152 153 159 162 162 161 160 159 156 156 153 148 145 145 148 153 147 137 129 129 125 121 117 115 117 123 128 151
216 233 238 247 255 257 236 214 194 179 216 199 116 97 119 138 148 156 162 165 163 165 165 163 164 163 163 162 158 161 161 158 160 159 162 173 167 152 143 139 145 149 150 151 158 180 210 203 184
219 231 244 253 263 277 266 235 209 194 211 204 162 145 146 156 162 170 174 174 170 170 170 166 165 163 160 155 161 167 165 167 178 170 177 177 155 142 142 151 157 168 174 181 187 205 218 183 131
236 234 236 247 258 265 266 257 241 221 218 210 170 157 159 171 177 181 182 178 171 171 173 170 165 161 161 158 164 164 163 171 177 172 176 168 156 153 152 158 169 178 178 175 173 208 196 139 114
236 242 243 242 242 253 259 252 249 245 229 239 169 155 167 179 185 187 184 177 171 173 173 174 167 163 162 159 163 166 165 168 171 170 175 168 157 155 151 156 163 171 168 164 186 208 143 108 87
240 239 242 243 239 237 244 250 243 243 234 227 191 169 178 186 189 186 185 182 179 176 175 175 172 166 162 163 165 167 166 166 166 167 177 171 165 157 153 157 162 170 170 166 191 174 126 108 100
251 252 247 237 231 227 234 244 235 231 230 227 205 186 188 192 192 192 188 186 182 177 174 176 175 170 167 168 171 170 167 167 165 168 178 175 170 164 163 162 162 171 169 170 174 150 117 116 114
239 240 242 234 227 220 217 241 226 216 222 228 216 200 191 196 196 193 189 186 182 174 174 177 178 174 171 171 173 171 172 169 168 169 176 178 176 172 168 164 169 171 168 165 146 153 130 130 122
227 229 230 229 220 217 219 241 230 213 213 222 221 211 197 193 197 194 190 186 182 177 174 175 175 177 174 171 170 171 173 172 171 169 175 181 179 176 171 171 171 171 165 162 165 162 152 156 167
212 224 231 228 215 216 224 234 232 222 219 220 219 214 206 198 197 191 186 184 181 177 174 174 175 178 172 168 169 171 176 177 173 172 178 179 179 177 176 172 175 172 161 170 173 173 172 173 183
239 235 235 235 221 219 227 234 229 221 228 230 221 214 210 205 195 188 183 179 176 175 174 175 175 179 174 174 176 180 185 182 179 180 184 182 180 180 177 172 176 172 171 178 177 169 176 188 161
241 248 248 248 234 226 233 240 235 224 222 226 226 218 210 207 200 191 183 178 177 178 179 178 178 179 178 179 179 180 176 179 180 178 185 188 184 182 181 175 177 173 172 177 180 171 171 181 164
234 239 243 245 248 247 255 251 238 232 226 224 224 221 213 209 203 191 182 178 175 178 179 181 179 178 178 171 167 167 167 173 183 187 191 192 188 185 181 182 175 176 175 182 186 180 175 182 192
232 232 241 246 244 239 218 250 233 222 224 225 222 217 213 212 206 194 184 179 177 179 177 179 179 178 177 171 175 177 184 189 193 187 186 185 189 189 185 184 180 178 178 180 185 182 179 171 186
232 234 243 245 248 257 235 244 246 216 220 218 217 214 208 205 202 196 188 181 177 174 174 178 177 178 177 177 180 184 189 190 183 182 184 187 189 191 189 185 182 182 183 182 182 180 184 184 181
226 230 249 257 246 244 230 231 250 219 221 213 210 208 203 197 196 193 185 175 172 170 170 174 176 179 179 180 183 187 188 186 182 184 187 188 187 190 191 187 185 185 184 184 184 183 183 187 186
204 193 203 208 219 234 214 224 240 226 219 214 206 201 196 190 188 187 183 179 176 171 173 176 178 181 180 182 187 190 191 190 189 187 188 187 186 189 191 189 190 188 185 181 176 179 184 185 186
204 199 204 205 210 221 204 224 234 218 223 223 203 190 184 185 186 185 184 179 177 175 175 177 181 182 182 184 189 190 189 191 193 189 185 186 187 187 184 186 186 185 182 180 177 180 184 184 189
202 210 225 254 264 244 217 221 221 209 206 207 197 182 184 186 185 181 179 175 174 175 177 178 179 181 183 185 186 187 187 189 189 185 179 181 179 177 179 182 183 185 183 180 178 184 184 180 187
212 196 202 214 216 236 236 223 215 196 202 197 195 192 193 188 184 180 177 175 173 172 171 173 177 180 180 181 184 187 186 186 184 180 180 177 177 174 176 179 182 183 183 181 178 180 181 183 189
200 205 208 210 230 216 229 237 214 196 193 192 195 193 192 183 179 178 177 171 164 162 164 170 174 174 177 180 182 180 181 180 179 179 179 176 175 172 175 177 180 182 181 179 182 185 180 183 185
220 213 207 206 214 224 239 253 279 156 176 184 190 191 183 178 175 172 169 162 160 163 167 171 175 176 178 177 176 176 175 175 178 180 178 172 170 171 173 174 176 179 178 179 181 181 179 184 188
Height
1501 1502 1503 1505 1506 1505 1499 1485 1474 1473 1474 1477 1479 1481 1483 1486 1492 1503 1503 1502 1503 1504 1507 1510 1513 1516 1519 1521 1522 1524 1525 1527 1528 1529 1530 1531 1532 1533 1534 1535 1536 1536 1537 1537 1537 1538 1538 1538 1538
1500 1502 1505 1504 1503 1505 1494 1479 1475 1473 1476 1479 1482 1484 1485 1489 1492 1496 1500 1502 1503 1504 1507 1510 1513 1516 1519 1521 1523 1524 1526 1527 1529 1530 1531 1532 1533 1534 1535 1536 1536 1537 1537 1538 1538 1538 1538 1539 1539
1499 1501 1503 1499 1497 1495 1484 1470 1470 1472 1477 1481 1484 1485 1486 1491 1493 1496 1499 1501 1503 1504 1507 1510 1513 1516 1518 1521 1523 1524 1526 1527 1529 1530 1532 1533 1534 1534 1535 1536 1537 1537 1538 1538 1539 1539 1539 1539 1540
1499 1501 1499 1495 1491 1481 1474 1469 1469 1474 1478 1481 1483 1485 1488 1492 1493 1495 1498 1500 1503 1505 1507 1510 1513 1516 1518 1521 1523 1525 1526 1528 1529 1530 1532 1533 1534 1535 1536 1536 1537 1538 1538 1539 1539 1540 1540 1540 1540
1499 1498 1496 1493 1486 1476 1469 1467 1469 1473 1477 1480 1482 1483 1488 1492 1492 1494 1497 1500 1503 1505 1506 1510 1513 1516 1518 1521 1523 1525 1526 1528 1529 1531 1532 1533 1534 1535 1536 1537 1538 1538 1539 1540 1540 1540 1541 1541 1541
1497 1492 1493 1491 1482 1473 1468 1467 1469 1472 1475 1478 1480 1482 1488 1490 1492 1494 1497 1501 1503 1505 1506 1510 1513 1516 1518 1521 1523 1525 1526 1528 1529 1531 1532 1533 1534 1535 1536 1537 1538 1539 1540 1540 1541 1541 1541 1542 1542
1492 1490 1487 1481 1477 1471 1466 1466 1468 1470 1473 1475 1478 1480 1486 1489 1491 1494 1497 1501 1503 1505 1506 1509 1512 1515 1518 1520 1522 1524 1526 1528 1529 1531 1532 1533 1535 1536 1537 1538 1539 1539 1540 1541 1541 1542 1542 1543 1543
1487 1486 1482 1478 1475 1469 1463 1464 1466 1469 1471 1473 1476 1478 1483 1486 1489 1493 1497 1501 1503 1505 1506 1508 1511 1514 1517 1519 1522 1524 1526 1527 1529 1531 1532 1534 1535 1536 1537 1538 1539 1540 1541 1541 1542 1542 1543 1543 1544
1484 1486 1480 1474 1471 1466 1461 1463 1466 1468 1470 1472 1474 1476 1479 1483 1487 1492 1496 1499 1502 1504 1506 1508 1510 1513 1516 1518 1521 1523 1525 1527 1529 1531 1532 1534 1535 1536 1537 1538 1540 1540 1541 1542 1542 1543 1544 1544 1544
1478 1479 1472 1467 1463 1462 1460 1462 1464 1467 1470 1472 1474 1477 1479 1482 1485 1489 1492 1496 1499 1501 1505 1507 1509 1512 1515 1517 1519 1522 1524 1526 1528 1530 1532 1534 1535 1537 1538 1539 1540 1541 1541 1542 1543 1544 1544 1544 1545
1470 1469 1466 1464 1462 1461 1460 1461 1463 1465 1469 1469 1471 1475 1478 1481 1484 1487 1490 1493 1496 1499 1503 1505 1508 1511 1513 1515 1518 1520 1523 1525 1527 1530 1532 1534 1536 1537 1538 1539 1540 1540 1541 1542 1543 1544 1544 1545 1545
1465 1462 1462 1462 1461 1460 1460 1460 1461 1462 1465 1466 1468 1470 1474 1478 1481 1484 1487 1491 1494 1497 1500 1503 1507 1509 1512 1514 1516 1519 1521 1524 1526 1529 1531 1533 1535 1536 1537 1538 1539 1540 1541 1542 1543 1544 1545 1545 1545
1460 1458 1458 1458 1459 1459 1459 1459 1460 1460 1462 1464 1465 1467 1470 1474 1477 1481 1484 1488 1491 1493 1497 1500 1504 1507 1510 1512 1515 1518 1520 1522 1525 1528 1530 1532 1534 1535 1537 1538 1539 1540 1541 1542 1543 1544 1545 1545 1545
1454 1455 1455 1455 1455 1456 1457 1457 1458 1457 1460 1461 1463 1464 1467 1470 1474 1477 1481 1485 1487 1490 1493 1497 1500 1504 1507 1510 1512 1515 1518 1521 1523 1526 1528 1530 1532 1534 1535 1537 1538 1539 1540 1541 1542 1543 1544 1544 1544
1453 1453 1451 1449 1451 1453 1456 1456 1453 1455 1457 1458 1459 1461 1464 1467 1470 1473 1476 1480 1483 1486 1489 1493 1497 1500 1503 1507 1510 1513 1516 1519 1521 1523 1526 1528 1530 1532 1534 1535 1537 1538 1539 1540 1541 1542 1543 1543 1543
1449 1451 1452 1445 1446 1448 1455 1453 1446 1450 1452 1453 1455 1457 1460 1463 1466 1469 1472 1475 1479 1482 1485 1489 1493 1496 1500 1503 1507 1510 1513 1516 1519 1521 1524 1526 1528 1530 1532 1533 1535 1537 1538 1539 1540 1541 1541 1541 1542
1449 1448 1446 1444 1441 1443 1447 1446 1442 1443 1445 1447 1449 1451 1454 1457 1461 1464 1467 1471 1474 1478 1481 1484 1488 1492 1496 1500 1503 1507 1510 1513 1516 1518 1521 1523 1525 1527 1529 1531 1533 1534 1536 1537 1538 1539 1539 1540 1540
1444 1443 1440 1439 1435 1437 1439 1439 1438 1438 1439 1441 1443 1445 1448 1451 1454 1458 1462 1465 1469 1473 1476 1480 1483 1488 1492 1496 1499 1503 1506 1509 1512 1515 1517 1520 1522 1524 1526 1528 1530 1532 1533 1534 1535 1536 1537 1538 1538
1436 1435 1435 1431 1428 1432 1433 1433 1432 1433 1434 1435 1436 1439 1442 1445 1449 1452 1456 1460 1464 1468 1471 1475 1478 1482 1487 1490 1493 1497 1500 1504 1508 1511 1514 1516 1519 1521 1523 1525 1527 1529 1530 1531 1533 1534 1535 1536 1536
1436 1436 1434 1429 1425 1427 1430 1428 1426 1426 1428 1429 1431 1433 1436 1439 1443 1446 1450 1453 1457 1461 1465 1469 1472 1476 1480 1484 1487 1491 1496 1500 1503 1506 1509 1512 1515 1517 1519 1522 1523 1525 1527 1528 1530 1531 1532 1533 1534
1433 1434 1433 1431 1427 1425 1429 1429 1423 1419 1420 1423 1425 1427 1430 1433 1436 1440 1443 1446 1450 1454 1458 1463 1466 1470 1474 1479 1484 1488 1492 1496 1499 1501 1504 1507 1510 1513 1515 1517 1520 1521 1523 1525 1526 1528 1529 1530 1531
1429 1426 1428 1428 1433 1433 1432 1435 1419 1414 1415 1415 1416 1419 1422 1427 1430 1433 1437 1440 1444 1448 1453 1457 1461 1465 1469 1473 1477 1481 1484 1486 1490 1494 1498 1502 1505 1508 1510 1513 1515 1517 1519 1521 1522 1524 1525 1526 1527
1422 1422 1425 1427 1431 1434 1428 1431 1417 1406 1407 1406 1407 1411 1414 1419 1423 1427 1430 1434 1438 1442 1446 1451 1455 1460 1463 1467 1471 1475 1478 1482 1486 1490 1493 1497 1500 1503 1505 1508 1510 1512 1514 1516 1518 1520 1521 1522 1523
1419 1425 1428 1429 1433 1435 1426 1429 1416 1403 1397 1396 1398 1402 1406 1411 1416 1421 1425 1429 1432 1436 1440 1445 1450 1454 1458 1462 1465 1469 1473 1477 1480 1484 1487 1490 1493 1497 1500 1502 1505 1507 1509 1512 1514 1515 1517 1519 1520
1419 1428 1435 1437 1436 1428 1415 1417 1406 1389 1385 1387 1390 1393 1398 1403 1408 1413 1418 1422 1426 1430 1434 1439 1443 1448 1452 1456 1459 1463 1467 1471 1474 1478 1481 1484 1487 1490 1493 1496 1499 1502 1504 1507 1509 1511 1513 1514 1515
1411 1418 1425 1426 1425 1415 1408 1407 1393 1382 1381 1381 1383 1387 1391 1397 1401 1406 1410 1415 1419 1423 1428 1432 1437 1441 1446 1449 1453 1458 1462 1466 1469 1473 1476 1478 1481 1484 1487 1491 1494 1497 1500 1502 1504 1506 1508 1510 1511
1408 1411 1410 1415 1410 1409 1399 1389 1381 1377 1377 1378 1381 1384 1387 1391 1396 1400 1405 1409 1413 1417 1421 1426 1430 1435 1440 1444 1448 1452 1456 1460 1464 1468 1471 1474 1477 1480 1483 1486 1489 1492 1495 1497 1499 1501 1503 1505 1506
1400 1405 1412 1416 1415 1413 1396 1387 1381 1376 1374 1375 1377 1380 1383 1387 1391 1395 1399 1404 1408 1412 1416 1421 1425 1429 1434 1438 1443 1447 1451 1454 1458 1463 1466 1469 1472 1475 1478 1481 1484 1487 1490 1492 1494 1496 1498 1500 1501
1398 1402 1404 1407 1404 1402 1399 1386 1363 1364 1365 1368 1371 1374 1378 1382 1386 1391 1395 1399 1403 1407 1411 1416 1420 1424 1429 1433 1437 1442 1446 1450 1453 1457 1461 1464 1468 1470 1473 1476 1479 1482 1484 1487 1489 1491 1493 1495 1496
1392 1392 1397 1403 1400 1394 1391 1381 1357 1357 1358 1361 1365 1370 1374 1378 1383 1387 1391 1395 1398 1402 1406 1410 1415 1419 1423 1428 1432 1436 1441 1445 1449 1452 1456 1460 1463 1466 1469 1471 1474 1477 1479 1482 1484 1486 1488 1490 1491